Location: Jangalapalle
(16.8036°N, 80.6370°E)
Time: 12:26:37
(UTC+00:00)

ARIANE 5 R/B - Pass Details

Date: 05 August 2024
Orbit: 748 x 792 km, 98.8° (Epoch: 08 September)

Event Time Altitude Azimuth Distance (km) Brightness Sun altitude
Rises 23:41:40 0° 12° (NNE) 3,283 6.3 -9.3°
Reaches altitude 10° 23:43:59 10° 12° (NNE) 2,354 5.5 -8.8°
Maximum altitude 23:49:12 89° 284° (WNW) 795 2.6 -7.6°
Drops below altitude 10° 23:54:24 10° 194° (SSW) 2,345 4.7 -6.4°
Sets 23:56:42 0° 193° (SSW) 3,268 5.4 -5.9°
